Location: Chełm
(51.1339°N, 23.4725°E)
Time: 06:24:52
(UTC+02:00)

ISS - Visible Passes

Search period start: 20 September 2018 00:00
Search period end: 30 September 2018 00:00
Orbit: 402 x 408 km, 51.6° (Epoch: 20 September)

Date Brightness Start Highest point End Pass type
(mag) Time Alt. Az. Time Alt. Az. Time Alt. Az.
22 Sep -1.4 20:27:55 10° SSW 20:28:33 14° SSW 20:28:33 14° SSW visible
23 Sep -2.3 19:36:34 10° S 19:38:59 19° SE 19:39:12 19° SE visible
23 Sep -0.8 21:11:48 10° WSW 21:11:54 11° WSW 21:11:54 11° WSW visible
24 Sep -3.0 20:19:55 10° SW 20:22:20 38° SSW 20:22:20 38° SSW visible
25 Sep -3.0 19:28:11 10° SW 19:31:11 33° SSE 19:32:36 22° ESE visible
25 Sep -1.3 21:04:11 10° W 21:05:17 19° W 21:05:17 19° W visible
26 Sep -3.9 20:12:10 10° WSW 20:15:25 74° S 20:15:25 74° S visible
27 Sep -3.6 19:20:13 10° WSW 19:23:26 55° SSE 19:25:28 20° E visible
27 Sep -1.7 20:56:36 10° W 20:58:09 25° W 20:58:09 25° W visible
28 Sep -3.9 20:04:31 10° W 20:07:49 86° N 20:08:07 72° ENE visible
29 Sep -3.9 19:12:26 10° WSW 19:15:44 81° SSE 19:18:02 18° E visible
29 Sep -1.8 20:48:58 10° W 20:50:42 28° W 20:50:42 28° W visible
